Regional Weather Roundup
Issued by NWS

Home | Current Version | Previous Version | Text Only | Print | Product List | Glossary Off
Versions: 1 2 3 4 5 6 7 8 9 10 11 12 13 14 15 16 17 18 19 20 21 22 23 24 25 26 27 28 29 30 31 32 33 34 35 36 37 38 39 40 41 42 43 44 45 46 47 48 49 50

000
ASUS43 KDMX 242206
RWRIA

WEATHER ROUNDUP FOR IOWA
NATIONAL WEATHER SERVICE DES MOINES IA
500 PM CDT SAT JUN 24 2017

NOTE: "FAIR" INDICATES FEW OR NO CLOUDS BELOW 12,000 FEET WITH NO
SIGNIFICANT WEATHER AND/OR OBSTRUCTIONS TO VISIBILITY.

* - THESE STATIONS ARE NOT NWS STATIONS...THUS NOT UNDER NWS
QUALITY CONTROL.  THEY ALSO DO NOT REPORT WEATHER SUCH
AS PRECIPITATION OR FOG.

IAZ001>003-012>014-020>022-031>034-043>046-242300-
   NORTHWEST IOWA

CITY           SKY/WX    TMP DP  RH WIND       PRES   REMARKS
CARROLL *      MOSUNNY   77  37  24 W22G30    30.09F
CHEROKEE *     PTSUNNY   72  38  28 NW16G30   30.10S
DENISON *      MOSUNNY   77  39  25 NW17G28   30.12F
LE MARS *      MOSUNNY   75  39  27 NW22G33   30.12S
ORANGE CITY *  SUNNY     72  39  30 NW22G29   30.11S
SHELDON *      MOSUNNY   72  37  28 NW23G33   30.10R
SIOUX CITY     MOSUNNY   78  40  25 NW21G29   30.11S
SPENCER        MOSUNNY   72  40  31 NW20G35   30.10R
STORM LAKE *   SUNNY     73  37  27 NW25G37   30.10S
$$

IAZ055>058-069>071-079>083-090>094-242300-
   SOUTHWEST IOWA

CITY           SKY/WX    TMP DP  RH WIND       PRES   REMARKS
ATLANTIC *     MOSUNNY   79  41  25 W17       30.11F
AUDUBON *      MOSUNNY   75  34  22 NW12G24   30.12F
CLARINDA *     SUNNY     79  43  27 W14G22    30.16F
COUNCIL BLFS * SUNNY     79  39  24 NW12G24   30.13F
CRESTON *      MOSUNNY   77  39  25 W17G29    30.13F
HARLAN  *      MOSUNNY   77  39  25 NW22      30.14F
LAMONI         MOSUNNY   76  45  33 W18       30.14F
RED OAK *      PTSUNNY   77  46  33 W10G18    30.13F
SHENANDOAH *   MOSUNNY   79  43  27 W14       30.14F
$$

IAZ047>049-059>061-072>074-084-242300-
   CENTRAL IOWA

CITY           SKY/WX    TMP DP  RH WIND       PRES   REMARKS
AMES           PTSUNNY   77  38  24 W20G26    30.06F
ANKENY *       MOSUNNY   77  43  29 W10G26    30.08F
BOONE *        PTSUNNY   75  37  25 W21G32    30.06F
CHARITON *     MOSUNNY   77  41  27 W15G25    30.11F
DES MOINES     MOSUNNY   77  41  27 W23G30    30.07F
GRINNELL*      MOSUNNY   75  40  28 W16G24    30.08F
KNOXVILLE *    MOSUNNY   75  45  33 W15G24    30.08F
MARSHALLTOWN   PTSUNNY   74  43  32 W13G24    30.04F
NEWTON *       MOSUNNY   75  43  31 W14G21    30.07F
PELLA *        SUNNY     77  41  27 W13G25    30.10F
PERRY *        PTSUNNY   75  32  20 W21G29    30.09S
$$

IAZ004>006-015-016-023>025-035-036-242300-
   NORTH CENTRAL IOWA

CITY           SKY/WX    TMP DP  RH WIND       PRES   REMARKS
ALGONA *       SUNNY     70  41  35 NW22G38   30.07S
CLARION *        N/A     72  39  30 NW25G37   30.05F
ESTHERVILLE    PTSUNNY   67  43  41 NW23G30   30.09R
FORT DODGE *   PTSUNNY   72  41  33 W16G24    30.08S
MASON CITY     MOSUNNY   71  41  33 NW28G36   30.05S
FOREST CITY *    N/A     70  28  21 NW21G33   30.06R
WEBSTER CITY * CLOUDY    75  39  27 W21G33    30.04F
IOWA FALLS *     N/A     73  40  30 W20G30    30.06F
$$

IAZ007>011-017>019-026>030-037>042-050>054-066-242300-
   NORTHEAST IOWA

CITY           SKY/WX    TMP DP  RH WIND       PRES   REMARKS
CEDAR RAPIDS   MOSUNNY   74  45  35 W18       30.04F
CHARLES CITY * CLOUDY    64  52  63 W5        30.03F
CLINTON *      MOSUNNY   73  44  35 W15G25    30.06F
DECORAH *      CLOUDY    59  54  82 CALM      30.02F
DUBUQUE        MOSUNNY   70  43  37 W18G25    30.04F
MONTICELLO *   SUNNY     72  45  37 W12G21    30.03F
OELWEIN *      CLOUDY    66  46  48 NW18G31   30.05R
WATERLOO       PTSUNNY   73  40  30 W20G38    30.01F
$$

IAZ064-065-067-068-078-242300-
   EAST CENTRAL IOWA

CITY           SKY/WX    TMP DP  RH WIND       PRES   REMARKS
DAVENPORT      SUNNY     73  42  32 W20G26    30.07F
IOWA CITY      SUNNY     76  43  30 W16G23    30.08F
MT. PLEASANT * SUNNY     75  37  25 W13G18    30.11F
MUSCATINE *    SUNNY     75  39  27 W14G23    30.08F
QUAD CITIES    SUNNY     74  40  29 NW17G26   30.07F
$$

IAZ062-063-075>077-085>089-095>099-242300-
   SOUTHEAST IOWA

CITY           SKY/WX    TMP DP  RH WIND       PRES   REMARKS
BURLINGTON     SUNNY     75  41  29 NW13G22   30.10F
FAIRFIELD *    MOSUNNY   77  39  25 W13       30.10F
FORT MADISON * SUNNY     75  43  31 NW13G18   30.12S
KEOKUK *       SUNNY     75  41  29 W16       30.11S
OSKALOOSA *    CLOUDY    75  42  30 W15       30.10F
CENTERVILLE *    N/A     75  41  29 W12       30.14F
OTTUMWA        PTSUNNY   76  41  28 W17G23    30.10F
WASHINGTON *   MOSUNNY   75  39  27 W16G24    30.10F
$$

ABBREVIATIONS USED IN REMARKS
   TC - TEMPERATURES IN CELSIUS
  WCI - WIND CHILL INDEX
   HX - HEAT INDEX
  VSB - VISIBILITY
$$





USA.gov is the U.S. government's official web portal to all federal, state and local government web resources and services.